| time (UTC) | temp F | wind direction | speed MPH | gust MPH | rain 1hr in | rain 24hr in | rain mn in | humidity % | barometer mb |
| 20260506143013 | 78 | 127 | 0.0 | 0.0 | 0.00 | 0.00 | 0.00 | 72 | 1009.8 |
| 20260506141515 | 78 | 115 | 0.0 | 0.0 | 0.00 | 0.00 | 0.00 | 72 | 1010.1 |
| 20260506140018 | 78 | 120 | 0.0 | 0.0 | 0.00 | 0.00 | 0.00 | 69 | 1010.1 |
| 20260506134525 | 78 | 120 | 0.0 | 0.0 | 0.00 | 0.00 | 0.00 | 66 | 1010.0 |
| 20260506133027 | 77 | 119 | 0.0 | 0.0 | 0.00 | 0.00 | 0.00 | 66 | 1010.1 |
| 20260506131529 | 76 | 120 | 0.0 | 0.0 | 0.00 | 0.00 | 0.00 | 65 | 1010.1 |
| 20260506130035 | 76 | 120 | 0.0 | 0.0 | 0.00 | 0.00 | 0.00 | 65 | 1010.2 |
| 20260506124532 | 0 | 0.0 | 0.0 | 0.00 | 0.01 | 0.00 | 1010.0 | ||
| 20260506123031 | 0 | 0.0 | 0.0 | 0.00 | 0.01 | 0.00 | 1009.9 | ||
| 20260506121530 | 0 | 0.0 | 0.0 | 0.00 | 0.01 | 0.00 | 1009.8 | ||
| 20260506120028 | 0 | 0.0 | 0.0 | 0.00 | 0.01 | 0.00 | 1009.6 | ||
| 20260506114530 | 0 | 0.0 | 0.0 | 0.00 | 0.01 | 0.00 | 1009.4 | ||
| 20260506113030 | 0 | 0.0 | 0.0 | 0.00 | 0.01 | 0.00 | 1009.2 | ||
| 20260506111528 | 0 | 0.0 | 0.0 | 0.00 | 0.01 | 0.00 | 1009.1 | ||
| 20260506110028 | 0 | 0.0 | 0.0 | 0.00 | 0.01 | 0.00 | 1009.1 | ||
| 20260506104532 | 0 | 0.0 | 0.0 | 0.00 | 0.01 | 0.00 | 1009.1 | ||
| 20260506103038 | 0 | 0.0 | 0.0 | 0.00 | 0.01 | 0.00 | 1009.1 | ||
| 20260506101531 | 0 | 0.0 | 0.0 | 0.00 | 0.01 | 0.00 | 1009.1 | ||
| 20260506100036 | 0 | 0.0 | 0.0 | 0.00 | 0.01 | 0.00 | 1008.9 | ||
| 20260506094540 | 0 | 0.0 | 0.0 | 0.00 | 0.01 | 0.00 | 1008.8 | ||
| 20260506093034 | 75 | 0.0 | 0.0 | 0.00 | 0.01 | 0.00 | 68 | 1008.9 | |
| 20260506091516 | 75 | 55 | 0.0 | 0.0 | 0.00 | 0.01 | 0.00 | 69 | 1008.9 |
| 20260506090023 | 75 | 55 | 0.0 | 0.0 | 0.00 | 0.01 | 0.00 | 69 | 1009.0 |
| 20260506084525 | 75 | 55 | 0.0 | 0.0 | 0.00 | 0.01 | 0.00 | 69 | 1009.2 |
| 20260506083011 | 75 | 108 | 0.0 | 0.0 | 0.00 | 0.01 | 0.00 | 70 | 1009.2 |
| 20260506081512 | 75 | 105 | 0.0 | 0.0 | 0.00 | 0.01 | 0.00 | 70 | 1009.2 |
| 20260506073025 | 76 | 115 | 0.0 | 0.0 | 0.00 | 0.01 | 0.00 | 72 | 1009.7 |
| 20260506071511 | 76 | 117 | 0.0 | 0.0 | 0.00 | 0.01 | 0.00 | 72 | 1009.8 |
| 20260506061527 | 76 | 108 | 0.0 | 0.0 | 0.00 | 0.01 | 0.00 | 74 | 1009.8 |
| 20260506044513 | 76 | 110 | 0.0 | 0.0 | 0.00 | 0.01 | 0.01 | 75 | 1009.9 |
| 20260506043020 | 76 | 109 | 0.0 | 7.0 | 0.00 | 0.01 | 0.01 | 75 | 1009.8 |
| 20260506041522 | 76 | 117 | 0.0 | 2.0 | 0.00 | 0.01 | 0.01 | 75 | 1009.8 |
| 20260506040027 | 76 | 120 | 0.0 | 0.0 | 0.00 | 0.01 | 0.01 | 75 | 1009.7 |
| 20260506034526 | 76 | 116 | 0.0 | 2.0 | 0.00 | 0.01 | 0.01 | 75 | 1009.7 |
| 20260506033017 | 76 | 108 | 0.0 | 0.0 | 0.00 | 0.01 | 0.01 | 75 | 1009.5 |
| 20260506031518 | 76 | 171 | 0.0 | 0.0 | 0.00 | 0.01 | 0.01 | 75 | 1009.5 |
| 20260506030030 | 76 | 115 | 0.0 | 1.0 | 0.00 | 0.01 | 0.01 | 75 | 1009.3 |
| 20260506024540 | 76 | 119 | 0.0 | 0.0 | 0.00 | 0.01 | 0.01 | 75 | 1009.4 |
| 20260506023030 | 76 | 102 | 0.0 | 0.0 | 0.00 | 0.01 | 0.01 | 76 | 1009.0 |
| 20260506021522 | 76 | 119 | 0.0 | 0.0 | 0.00 | 0.01 | 0.01 | 76 | 1008.7 |
| 20260506020022 | 76 | 75 | 0.0 | 0.0 | 0.00 | 0.01 | 0.01 | 77 | 1008.5 |
| 20260506014528 | 77 | 110 | 0.0 | 0.0 | 0.00 | 0.01 | 0.01 | 78 | 1008.3 |
| 20260506013025 | 77 | 111 | 0.0 | 0.0 | 0.00 | 0.01 | 0.01 | 79 | 1008.2 |
| 20260506011528 | 77 | 129 | 0.0 | 2.0 | 0.00 | 0.01 | 0.01 | 79 | 1007.9 |
| 20260506010021 | 77 | 119 | 0.0 | 0.0 | 0.00 | 0.01 | 0.01 | 80 | 1007.8 |
| 20260506004524 | 78 | 108 | 0.0 | 0.0 | 0.00 | 0.01 | 0.01 | 80 | 1007.6 |
| 20260506003033 | 78 | 84 | 0.0 | 0.0 | 0.00 | 0.01 | 0.01 | 80 | 1007.5 |
| 20260506001534 | 78 | 117 | 0.0 | 0.0 | 0.00 | 0.01 | 0.01 | 81 | 1007.5 |
| 20260506000020 | 78 | 116 | 0.0 | 0.0 | 0.00 | 0.01 | 0.01 | 81 | 1007.6 |
| 20260505234527 | 79 | 173 | 0.0 | 5.0 | 0.00 | 0.01 | 0.01 | 81 | 1007.4 |
| 20260505233003 | 79 | 72 | 1.0 | 8.0 | 0.00 | 0.01 | 0.01 | 80 | 1007.6 |
| 20260505231509 | 79 | 117 | 0.0 | 0.0 | 0.00 | 0.01 | 0.01 | 80 | 1007.6 |
| 20260505230025 | 80 | 106 | 0.0 | 0.0 | 0.00 | 0.01 | 0.01 | 79 | 1007.5 |
| 20260505224516 | 80 | 115 | 0.0 | 0.0 | 0.00 | 0.01 | 0.01 | 80 | 1007.4 |
| 20260505223021 | 80 | 126 | 0.0 | 0.0 | 0.00 | 0.01 | 0.01 | 80 | 1007.6 |
| 20260505221505 | 80 | 108 | 0.0 | 0.0 | 0.00 | 0.01 | 0.01 | 80 | 1007.6 |
| 20260505220008 | 80 | 120 | 0.0 | 4.0 | 0.00 | 0.01 | 0.01 | 80 | 1007.7 |
| 20260505214516 | 80 | 133 | 0.0 | 4.0 | 0.00 | 0.01 | 0.01 | 80 | 1007.9 |
| 20260505213017 | 81 | 101 | 0.0 | 7.0 | 0.00 | 0.01 | 0.01 | 79 | 1008.0 |
| 20260505211524 | 80 | 104 | 0.0 | 6.0 | 0.00 | 0.01 | 0.01 | 80 | 1008.2 |
| 20260505210012 | 81 | 117 | 0.0 | 0.0 | 0.00 | 0.01 | 0.01 | 79 | 1008.2 |
| 20260505204509 | 81 | 108 | 0.0 | 0.0 | 0.00 | 0.01 | 0.01 | 79 | 1008.6 |
| 20260505203019 | 81 | 114 | 0.0 | 6.0 | 0.00 | 0.01 | 0.01 | 79 | 1008.9 |
| 20260505201521 | 81 | 108 | 0.0 | 0.0 | 0.00 | 0.01 | 0.01 | 79 | 1009.1 |
| 20260505200024 | 81 | 119 | 0.0 | 7.0 | 0.00 | 0.01 | 0.01 | 79 | 1009.2 |
| 20260505194509 | 81 | 103 | 0.0 | 6.0 | 0.00 | 0.01 | 0.01 | 79 | 1009.2 |
| 20260505193012 | 80 | 126 | 0.0 | 9.0 | 0.00 | 0.01 | 0.01 | 79 | 1009.2 |
| 20260505191518 | 80 | 113 | 0.0 | 0.0 | 0.00 | 0.01 | 0.01 | 80 | 1009.4 |
| 20260505190023 | 79 | 110 | 0.0 | 0.0 | 0.00 | 0.01 | 0.01 | 80 | 1009.5 |
| 20260505184525 | 79 | 119 | 0.0 | 0.0 | 0.00 | 0.01 | 0.01 | 80 | 1009.7 |
| 20260505183011 | 79 | 113 | 0.0 | 0.0 | 0.00 | 0.01 | 0.01 | 80 | 1009.8 |
| 20260505181514 | 79 | 127 | 0.0 | 0.0 | 0.00 | 0.01 | 0.01 | 80 | 1009.9 |
| 20260505180038 | 80 | 136 | 0.0 | 0.0 | 0.00 | 0.01 | 0.01 | 79 | 1009.9 |
| 20260505174522 | 80 | 115 | 0.0 | 0.0 | 0.00 | 0.01 | 0.01 | 80 | 1009.9 |
| 20260505173025 | 79 | 105 | 0.0 | 0.0 | 0.00 | 0.01 | 0.01 | 80 | 1010.1 |
| 20260505171511 | 80 | 104 | 0.0 | 0.0 | 0.00 | 0.01 | 0.01 | 79 | 1010.2 |
| 20260505170017 | 79 | 106 | 0.0 | 0.0 | 0.00 | 0.01 | 0.01 | 80 | 1010.3 |
| 20260505164522 | 79 | 104 | 0.0 | 0.0 | 0.00 | 0.01 | 0.01 | 79 | 1010.3 |
| 20260505163029 | 79 | 108 | 0.0 | 0.0 | 0.00 | 0.01 | 0.01 | 80 | 1010.2 |
| 20260505161526 | 79 | 164 | 0.0 | 0.0 | 0.00 | 0.01 | 0.01 | 80 | 1010.3 |
| 20260505153021 | 79 | 116 | 0.0 | 0.0 | 0.00 | 0.01 | 0.01 | 79 | 1010.0 |
| 20260505151526 | 78 | 105 | 0.0 | 0.0 | 0.00 | 0.01 | 0.01 | 80 | 1009.9 |